Date String (YYYY-MM-DD hh:mm:ss) UTC,Instrument flags,Ambient pressure (hPa),Sample flow (lpm),Bypass flow (lpm),Sample temperature (°C),Ambient temperature (°C),ASC tube jacket temperature (°C),LED temperature (°C),Box temperature (°C),Sample RH (%),Span deviation,Mass concentration (μg/m³),Mass concentration (μg/m³),Mass concentration (μg/m³)
DateTimeUTC,F1_M11,P_M11,Q1_M11,Q2_M11,T1_M11,T2_M11,T3_M11,T4_M11,T5_M11,U1_M11,ZSPAN_M11,X2_M11,X0_M11,X1_M11
2023-03-07 03:00:00,,0825.6,5.00,0.00,22.3,20.4,00.0,31.2,23.9,15.4,0000.3,0005.64,0010.32,0005.11
2023-03-07 03:01:00,,0825.6,5.00,0.00,22.3,20.4,00.0,31.2,23.9,15.4,0000.0,0005.63,0010.60,0005.10
2023-03-07 03:02:00,,0825.6,4.99,0.00,22.3,20.3,00.0,31.2,23.8,15.5,-000.0,0005.63,0010.43,0005.09
2023-03-07 03:03:00,,0825.6,5.00,0.00,22.2,20.3,00.0,31.1,23.8,15.5,0000.0,0005.62,0010.31,0005.08
2023-03-07 03:04:00,,0825.6,4.99,0.00,22.2,20.2,00.0,31.1,23.8,15.6,0000.0,0005.56,0010.43,0005.05
2023-03-07 03:05:00,,0825.6,5.01,0.00,22.2,20.2,00.0,31.1,23.8,15.6,0000.0,0005.54,0011.39,0005.02
2023-03-07 03:06:00,,0825.6,4.98,0.00,22.1,20.1,00.0,31.1,23.7,15.5,0000.0,0005.47,0011.25,0005.00
2023-03-07 03:07:00,,0825.6,5.01,0.00,22.1,20.2,00.0,31.0,23.7,15.5,0000.0,0005.42,0010.83,0004.97
2023-03-07 03:08:00,,0825.6,5.02,0.00,22.2,21.2,00.0,31.0,24.0,15.5,0000.0,0005.36,0010.62,0004.94
2023-03-07 03:09:00,,0825.7,4.96,0.00,22.3,22.4,00.0,31.0,24.3,15.4,0000.0,0005.30,0010.48,0004.93
2023-03-07 03:10:00,,0825.6,5.00,0.00,22.4,22.7,00.0,31.0,24.3,15.3,0000.0,0005.24,0010.35,0004.90
2023-03-07 03:11:00,,0825.6,4.99,0.00,22.4,22.2,00.0,31.1,24.2,15.2,0000.0,0005.19,0010.39,0004.88
2023-03-07 03:12:00,,0825.6,4.99,0.00,22.4,21.8,00.0,31.1,24.2,15.3,0000.0,0005.14,0010.10,0004.86
2023-03-07 03:13:00,,0825.6,5.00,0.00,22.4,21.4,00.0,31.1,24.1,15.3,0000.0,0005.07,0009.51,0004.83
2023-03-07 03:14:00,,0825.6,5.00,0.00,22.3,21.0,00.0,31.1,24.0,15.3,0000.0,0005.02,0009.43,0004.80
2023-03-07 03:15:00,,0825.6,4.99,0.00,22.3,20.8,00.0,31.1,23.9,15.3,0000.0,0004.99,0009.15,0004.79
2023-03-07 03:16:00,,0825.6,5.01,0.00,22.3,20.6,00.0,31.1,23.8,15.3,0000.0,0004.97,0008.14,0004.79
2023-03-07 03:17:00,,0825.6,5.00,0.00,22.2,20.4,00.0,31.1,23.8,15.4,0000.0,0004.95,0007.99,0004.78
2023-03-07 03:18:00,,0825.6,5.00,0.00,22.2,20.3,00.0,31.1,23.7,15.4,0000.0,0004.97,0008.03,0004.78
2023-03-07 03:19:00,,0825.5,5.02,0.00,22.1,20.1,00.0,31.0,23.6,15.4,0000.0,0004.99,0008.07,0004.79
2023-03-07 03:20:00,,0825.5,5.01,0.00,22.1,20.1,00.0,31.0,23.6,15.5,0000.0,0004.99,0008.09,0004.78
2023-03-07 03:21:00,,0825.5,4.99,0.00,22.1,20.0,00.0,31.0,23.6,15.6,-000.2,0004.99,0007.74,0004.78
2023-03-07 03:22:00,,0825.6,5.00,0.00,22.0,19.9,00.0,31.0,23.5,15.6,-000.1,0004.99,0007.54,0004.78
2023-03-07 03:23:00,,0825.6,4.99,0.00,22.0,19.8,00.0,30.9,23.4,15.6,-000.1,0004.99,0007.52,0004.78
2023-03-07 03:24:00,,0825.6,5.02,0.00,21.9,20.0,00.0,30.9,23.4,15.7,-000.3,0004.98,0007.47,0004.78
2023-03-07 03:25:00,,0825.6,5.00,0.00,22.0,21.1,00.0,30.9,23.8,15.6,-000.5,0004.95,0007.42,0004.78
2023-03-07 03:26:00,,0825.6,5.02,0.00,22.1,22.4,00.0,30.9,24.1,15.5,-000.3,0004.95,0007.41,0004.78
2023-03-07 03:27:00,,0825.6,4.98,0.00,22.2,22.7,00.0,30.9,24.2,15.4,0000.0,0004.94,0007.39,0004.78
2023-03-07 03:28:00,,0825.6,5.01,0.00,22.3,22.1,00.0,30.9,24.1,15.4,0000.0,0004.95,0007.41,0004.78
2023-03-07 03:29:00,,0825.6,5.03,0.00,22.3,21.6,00.0,31.0,24.0,15.4,0000.0,0004.96,0007.81,0004.77
2023-03-07 03:30:00,,0825.6,5.01,0.00,22.2,21.3,00.0,31.0,23.9,15.4,0000.0,0004.97,0008.20,0004.77
2023-03-07 03:31:00,,0825.6,5.00,0.00,22.2,21.0,00.0,31.0,23.8,15.5,0000.0,0005.00,0008.84,0004.77
2023-03-07 03:32:00,,0825.6,5.01,0.00,22.2,20.8,00.0,31.0,23.8,15.5,0000.0,0005.01,0008.88,0004.78
2023-03-07 03:33:00,,0825.6,5.00,0.00,22.2,20.6,00.0,31.0,23.7,15.5,0000.0,0004.99,0008.85,0004.77
2023-03-07 03:34:00,,0825.6,5.01,0.00,22.1,20.4,00.0,31.0,23.7,15.5,0000.0,0005.00,0009.00,0004.77
2023-03-07 03:35:00,,0825.6,4.99,0.00,22.1,20.3,00.0,30.9,23.6,15.6,0000.0,0005.03,0009.35,0004.81
2023-03-07 03:36:00,,0825.6,5.00,0.00,22.1,20.2,00.0,30.9,23.6,15.6,0000.0,0005.08,0009.41,0004.85
2023-03-07 03:37:00,,0825.6,5.04,0.00,22.0,20.0,00.0,30.9,23.5,15.6,0000.0,0005.11,0009.45,0004.88
2023-03-07 03:38:00,,0825.6,4.99,0.00,22.0,19.9,00.0,30.9,23.4,15.7,0000.0,0005.14,0009.49,0004.91
2023-03-07 03:39:00,,0825.6,5.01,0.00,21.9,19.8,00.0,30.9,23.4,15.7,0000.0,0005.17,0009.57,0004.93
2023-03-07 03:40:00,,0825.7,5.02,0.00,21.9,19.7,00.0,30.8,23.3,15.8,0000.0,0005.18,0009.33,0004.95
2023-03-07 03:41:00,,0825.7,5.02,0.00,21.9,20.4,00.0,30.8,23.5,15.8,0000.0,0005.16,0008.98,0004.95
2023-03-07 03:42:00,,0825.7,5.01,0.00,22.0,21.7,00.0,30.8,23.8,15.7,0000.0,0005.14,0008.27,0004.96
2023-03-07 03:43:00,,0825.6,5.01,0.00,22.1,22.6,00.0,30.8,24.0,15.6,0000.0,0005.13,0008.50,0004.97
2023-03-07 03:44:00,,0825.6,5.00,0.00,22.2,22.3,00.0,30.8,24.0,15.6,0000.0,0005.16,0008.89,0004.98
2023-03-07 03:45:00,,0825.6,5.01,0.00,22.2,21.8,00.0,30.9,24.0,15.6,0000.0,0005.18,0008.94,0004.99
2023-03-07 03:46:00,,0825.6,5.01,0.00,22.2,21.4,00.0,30.9,23.9,15.7,0000.0,0005.19,0008.71,0004.98
2023-03-07 03:47:00,,0825.6,4.99,0.00,22.1,21.0,00.0,30.9,23.8,15.7,0000.0,0005.18,0008.77,0004.95
2023-03-07 03:48:00,,0825.6,5.00,0.00,22.1,20.7,00.0,30.9,23.7,15.7,0000.0,0005.17,0008.78,0004.93
2023-03-07 03:49:00,,0825.6,4.99,0.00,22.1,20.5,00.0,30.9,23.6,15.7,0000.0,0005.18,0008.83,0004.92
2023-03-07 03:50:00,,0825.6,5.01,0.00,22.0,20.3,00.0,30.9,23.5,15.7,0000.0,0005.16,0008.79,0004.91
2023-03-07 03:51:00,,0825.6,5.02,0.00,22.0,20.2,00.0,30.9,23.5,15.7,0000.0,0005.15,0008.72,0004.89
2023-03-07 03:52:00,,0825.6,4.96,0.00,22.0,20.0,00.0,30.8,23.4,15.8,0000.0,0005.17,0008.78,0004.90
2023-03-07 03:53:00,,0825.6,5.01,0.00,21.9,19.9,00.0,30.8,23.3,15.9,0000.0,0005.17,0008.82,0004.89
2023-03-07 03:54:00,,0825.6,5.02,0.00,21.9,19.9,00.0,30.8,23.3,15.9,0000.0,0005.16,0008.47,0004.88
2023-03-07 03:55:00,,0825.6,5.01,0.00,21.8,19.8,00.0,30.8,23.3,15.9,0000.0,0005.18,0008.21,0004.87
2023-03-07 03:56:00,,0825.5,4.99,0.00,21.8,19.8,00.0,30.7,23.3,15.9,0000.0,0005.15,0008.10,0004.85
2023-03-07 03:57:00,,0825.5,5.00,0.00,21.8,20.4,00.0,30.7,23.4,15.9,0000.0,0005.12,0007.92,0004.85
2023-03-07 03:58:00,,0825.6,4.99,0.00,21.9,21.7,00.0,30.7,23.7,15.8,0000.0,0005.10,0008.23,0004.84
2023-03-07 03:59:00,,0825.6,5.01,0.00,22.0,22.5,00.0,30.7,24.0,15.7,0000.0,0005.08,0008.52,0004.83
